Weather History for Moses Lake, WA

Change the Weather History Date:

Sunday, February 9, 2014

  Actual Average Record
Temperature  
Mean Temperature 25 °F 34 °F  
Max Temperature 29 °F 42 °F 51 °F (1998)
Min Temperature 20 °F 26 °F 3 °F (1985)
Degree Days  
Heating Degree Days 40 31  
Month to date heating degree days 426 287  
Since 1 July heating degree days 4110 3961  
Cooling Degree Days 0 0  
Month to date cooling degree days 0 0  
Year to date cooling degree days 0 0  
Moisture  
Dew Point 18 °F    
Average Humidity 78    
Maximum Humidity 92    
Minimum Humidity 63    
Precipitation  
Precipitation 0.03 in 0.02 in 0.45 in (1985)
Month to date precipitation 0.14 0.31  
Year to date precipitation 0.54 1.45  
Sea Level Pressure  
Sea Level Pressure 30.18 in    
Wind  
Wind Speed 2 mph (NNW)    
Max Wind Speed 15 mph    
Max Gust Speed 19 mph    
Visibility 8 miles    
Events Snow    
T = Trace of Precipitation, MM = Missing Value Source: NWS Daily Summary

Daily Weather History Graph

Daily Weather History Graph

Search for Another Location

Airport:

Trip Planner

Search our weather history database for the weather conditions in past years. The results will help you decide how hot, cold, wet, or windy it might be!

Date:

Astronomy

Feb. 09, 2014 Rise Set
Actual Time 7:11 AM PST 5:12 PM PST
Civil Twilight 6:39 AM PST 5:44 PM PST
Nautical Twilight 6:03 AM PST 6:20 PM PST
Astronomical Twilight 5:27 AM PST 6:55 PM PST
Moon 12:49 PM PST (2/9) 3:27 AM PST (2/9)
Length of Visible Light 11h 04m
Length of Day
10h 00m
Waxing Gibbous, 78% of the Moon is Illuminated
Feb 9
Waxing Gibbous
Feb 14
Full
Feb 22
Last Quarter
Mar 1
New
Mar 8
First Quarter

Hourly Weather History & Observations

Time (PST) Temp. Windchill Dew Point Humidity Pressure Visibility Wind Dir Wind Speed Gust Speed Precip Events Conditions
12:18 AM 21.0 °F 7.6 °F 19.0 °F 92% 30.01 in 0.8 mi NNW 15.0 mph - 0.02 in Snow Light Snow
12:41 AM 21.0 °F 8.6 °F 19.0 °F 92% 30.02 in 1.0 mi NNW 12.7 mph - 0.03 in Snow Light Snow
12:52 AM 21.9 °F 10.4 °F 19.0 °F 89% 30.07 in 1.2 mi NNW 11.5 mph - 0.03 in Snow Light Snow
1:13 AM 21.0 °F 9.3 °F 19.0 °F 92% 30.02 in 2.0 mi North 11.5 mph - 0.00 in Snow Light Snow
1:52 AM 21.9 °F 11.7 °F 19.0 °F 89% 30.10 in 3.0 mi NNW 9.2 mph - 0.00 in Snow Light Snow
2:06 AM 21.9 °F 11.7 °F 19.0 °F 89% 30.05 in 4.0 mi NNW 9.2 mph - 0.00 in Snow Light Snow
2:52 AM 21.0 °F 14.6 °F 19.0 °F 92% 30.12 in 10.0 mi NNW 4.6 mph - 0.00 in   Overcast
3:52 AM 21.0 °F - 18.0 °F 88% 30.15 in 9.0 mi Calm Calm - 0.01 in   Overcast
4:52 AM 21.0 °F - 18.0 °F 88% 30.17 in 10.0 mi Calm Calm - 0.00 in   Overcast
5:52 AM 19.9 °F 14.9 °F 17.1 °F 89% 30.17 in 10.0 mi NNE 3.5 mph - N/A   Overcast
6:52 AM 19.9 °F - 18.0 °F 92% 30.17 in 10.0 mi Calm Calm - N/A   Overcast
7:52 AM 19.9 °F 14.9 °F 17.1 °F 89% 30.20 in 10.0 mi West 3.5 mph - N/A   Overcast
8:52 AM 21.9 °F - 18.0 °F 85% 30.21 in 10.0 mi Calm Calm - N/A   Overcast
9:07 AM 23.0 °F - 18.0 °F 81% 30.16 in 10.0 mi Calm Calm - N/A   Overcast
9:48 AM 23.0 °F - 17.6 °F 80% 30.16 in 10.0 mi Calm Calm - N/A   Overcast
9:52 AM 23.0 °F - 18.0 °F 81% 30.22 in 10.0 mi Calm Calm - N/A   Overcast
10:52 AM 25.0 °F 20.7 °F 19.0 °F 78% 30.23 in 10.0 mi NNW 3.5 mph - N/A   Overcast
11:52 AM 26.1 °F - 19.0 °F 75% 30.22 in 10.0 mi Calm Calm - N/A   Overcast
12:52 PM 27.0 °F - 19.0 °F 72% 30.22 in 10.0 mi Calm Calm - N/A   Overcast
1:52 PM 27.0 °F - 18.0 °F 69% 30.22 in 10.0 mi Calm Calm - N/A   Overcast
2:52 PM 28.0 °F - 18.0 °F 66% 30.22 in 10.0 mi Calm Calm - N/A   Overcast
3:52 PM 27.0 °F 23.0 °F 18.0 °F 69% 30.22 in 10.0 mi SSE 3.5 mph - N/A   Overcast
4:52 PM 26.1 °F - 19.0 °F 75% 30.21 in 10.0 mi Calm Calm - N/A   Overcast
5:52 PM 23.0 °F - 18.0 °F 81% 30.23 in 10.0 mi Calm Calm - N/A   Overcast
6:52 PM 24.1 °F - 19.0 °F 81% 30.24 in 10.0 mi Calm Calm - N/A   Overcast
7:21 PM 24.1 °F - 18.0 °F 77% 30.18 in 10.0 mi Calm Calm - N/A   Overcast
7:52 PM 23.0 °F 18.4 °F 18.0 °F 81% 30.24 in 10.0 mi West 3.5 mph - N/A   Overcast
8:25 PM 21.9 °F 17.2 °F 18.0 °F 85% 30.20 in 10.0 mi West 3.5 mph - N/A   Unknown
8:52 PM 23.0 °F - 18.0 °F 81% 30.25 in 10.0 mi Calm Calm - N/A   Overcast
9:52 PM 23.0 °F 18.4 °F 18.0 °F 81% 30.25 in 10.0 mi NE 3.5 mph - N/A   Overcast
10:09 PM 21.9 °F 17.2 °F 19.0 °F 89% 30.20 in 10.0 mi North 3.5 mph - N/A   Overcast
10:52 PM 21.9 °F - 18.0 °F 85% 30.26 in 10.0 mi Calm Calm - N/A   Overcast
11:52 PM 21.9 °F - 19.0 °F 89% 30.26 in 6.0 mi Calm Calm - 0.00 in Snow Light Snow